Regional Weather Roundup
Issued by NWS

Home | Current Version | Previous Version | Graphics & Text | Print | Product List | Glossary On
Versions: 1 2 3 4 5 6 7 8 9 10 11 12 13 14 15 16 17 18 19 20 21 22 23 24 25 26 27 28 29 30 31 32 33 34 35 36 37 38 39 40 41 42 43 44 45 46 47 48 49 50
000
ASUS43 KTOP 250308
RWRKS

WEATHER ROUNDUP FOR KANSAS
NATIONAL WEATHER SERVICE GOODLAND KS
900 PM CST SAT FEB 24 2018

NOTE:  "FAIR" INDICATES FEW OR NO CLOUDS BELOW 12,000 FEET WITH NO
SIGNIFICANT WEATHER AND/OR OBSTRUCTIONS TO VISIBILITY.

KSZ001>006-013>018-027>032-041>047-250400-
NORTHWEST KANSAS

CITY           SKY/WX    TMP DP  RH WIND       PRES   REMARKS
GOODLAND       CLEAR     23  12  62 N8        29.86R
HAYS           CLEAR     26  12  55 W6        29.90R
HILL CITY      CLEAR     27  14  58 NW7       29.90R
RUSSELL        CLEAR     29  16  58 W9        29.88R
$$

KSZ061>065-074>080-084>089-250400-
SOUTHWEST KANSAS

CITY           SKY/WX    TMP DP  RH WIND       PRES   REMARKS
DODGE CITY     CLEAR     27   8  44 NE9       29.90R
ELKHART        CLEAR     31   8  38 S8        29.87S
GARDEN CITY    CLEAR     31   7  36 NE10      29.89R WCI  22
GREAT BEND     CLEAR     25  18  74 W9        29.92R
LIBERAL        CLEAR     30  20  66 S9        29.90R
PRATT          CLEAR     29  21  71 NW6       29.92R
$$

KSZ066>073-081>083-090>101-250400-
SOUTHEAST KANSAS

CITY           SKY/WX    TMP DP  RH WIND       PRES   REMARKS
CHANUTE        CLEAR     35  32  88 SW7       29.93S
COFFEYVILLE    CLEAR     38  33  82 CALM      29.96R
HUTCHINSON     CLEAR     26  26 100 CALM      29.91R
MEDICINE LODGE   N/A     38  31  76 CALM      29.93R
NEWTON         CLEAR     29  28  96 SW7       29.91R
PARSONS        CLEAR     34  33  96 CALM      29.95F
WICHITA INTL   CLEAR     29  27  92 SW7       29.92R
WICHITA JABRA  CLEAR     35  31  85 SW9       29.91R
WICHITA MCCONL CLEAR     34  29  81 SW6       29.92R
WINFIELD       CLEAR     30  29  96 S3        29.95R
$$

KSZ007>012-019>026-033>040-048>060-102>105-250400-
NORTHEAST KANSAS

CITY           SKY/WX    TMP DP  RH WIND       PRES   REMARKS
CONCORDIA      CLEAR     33  24  69 W10       29.85R WCI  25
EMPORIA        CLEAR     27  25  92 S6        29.90R
LAWRENCE       PTCLDY    34  30  85 W13       29.89R WCI  25
MANHATTAN      CLEAR     30  27  88 SW7       29.88R
MARYSVILLE     CLEAR     30  28  93 SW8       29.84R
OLATHE IND     MOCLDY    34  30  85 W10       29.89R WCI  26
OLATHE EXE     CLOUDY    33  29  85 W16       29.88R WCI  23
SALINA         CLEAR     36  28  73 W12       29.91R WCI  28
TOPEKA BILLARD CLEAR     33  30  88 SW6       29.88R
TOPEKA FORBES  CLEAR     31  29  92 SW7       29.88R
$$




USA.gov is the U.S. government's official web portal to all federal, state and local government web resources and services.